[[{"header":{"parameterUnit":"m.s-1","parameterCategory":1,"la1":30.2992,"la2":30.254,"lo1":-89.0895,"lo2":-89.0443,"dy":0.0025,"dx":0.0025,"nx":19,"ny":19,"refTime":"2026-04-02T09:00:00:Z","depth":0,"parameterNumber":2,"parameterNumberName":"U-component_of_WINDS"},"data":[0,0,0,-5.4325,-5.4329,-5.4517,-5.4518,-5.476,-5.4762,0,0,0,0,0,0,0,0,0,0,0,-5.427,-5.4272,-5.4325,-5.433,-5.4517,-5.4518,-5.4759,-5.4762,0,0,0,0,0,0,0,0,0,0,0,-5.4269,-5.4271,-5.4273,-5.433,-5.4517,-5.4518,-5.4759,-5.4617,0,0,0,0,0,0,0,0,0,0,-5.4434,-5.4383,-5.4271,-5.4273,-5.4331,-5.4517,-5.4518,-5.461,-5.4626,-5.4675,0,-5.4719,0,-5.4744,-5.4778,-5.4779,0,0,0,-5.4329,-5.437,-5.442,-5.4273,-5.4333,-5.4516,-5.4432,-5.4619,-5.4636,-5.4696,-5.4722,-5.4731,-5.4748,-5.478,-5.4781,-5.5066,-5.5067,0,0,-5.4319,-5.4304,-5.4408,-5.4432,-5.4402,-5.4426,-5.4438,-5.4629,-5.4657,-5.4723,-5.4737,-5.4752,-5.4781,-5.4783,-5.5065,-5.5067,0,0,0,-5.4289,-5.4297,-5.4342,-5.4422,-5.4456,-5.4432,-5.4446,-5.4649,-5.4665,-5.474,-5.4755,-5.4783,-5.4786,-5.5064,-5.5066,-5.5115,0,0,0,-5.4283,-5.4279,-5.4338,-5.433,-5.4452,-5.4554,-5.446,-5.4651,-5.4674,-5.4754,-5.4783,-5.4788,-5.5062,-5.5065,-5.511,-5.514,0,0,0,-5.4258,-5.4276,-5.4303,-5.4329,-5.4409,-5.4552,-5.4579,-5.4657,-5.4683,-5.4779,-5.4789,-5.5061,-5.5064,-5.5106,-5.5133,-5.5209,0,0,0,-5.4226,-5.4345,-5.4304,-5.4444,-5.4408,-5.4581,-5.4578,-5.4708,-5.4797,-5.4784,-5.5062,-5.5065,-5.5105,-5.5129,-5.5204,-5.5267,-5.5293,0,0,-5.4368,-5.4362,-5.4446,-5.4414,-5.4591,-5.4554,-5.4739,-5.4835,-5.4859,-5.4996,-5.5003,-5.5112,-5.5133,-5.5208,-5.5446,-5.5466,0,0,0,-5.4485,-5.4545,-5.4595,-5.4678,-5.4755,-5.4823,-5.4892,-5.4928,-5.5045,-5.4926,-5.5162,-5.5175,-5.5219,-5.525,-5.5267,-5.5305,-5.508,-5.5079,-5.5079,-5.4662,-5.4686,-5.4826,-5.4873,-5.4955,-5.5026,-5.5094,-5.5155,-5.5156,-5.5212,-5.5251,-5.5393,-5.5428,-5.5441,-5.5481,-5.5289,-5.5289,-5.5289,-5.529,-5.487,-5.4957,-5.4957,-5.5092,-5.5118,-5.5232,-5.5307,-5.5304,-5.5414,-5.5365,-5.5405,-5.5346,-5.5462,-5.5498,-5.5294,-5.5293,-5.5292,-5.5292,-5.5292,-5.4985,-5.5031,-5.5074,-5.5197,-5.529,-5.5336,-5.5441,-5.5462,-5.5482,-5.5523,-5.5566,-5.5565,-5.5565,-5.5543,-5.5543,-5.5544,-5.5544,-5.5545,-5.5545,-5.5086,-5.5133,-5.5219,-5.5312,-5.5368,-5.5446,-5.5521,-5.5578,-5.5646,-5.5652,-5.5653,-5.5647,-5.547,-5.5423,-5.5553,-5.5551,-5.555,-5.555,-5.5549,-5.5282,-5.5242,-5.5374,-5.5431,-5.5542,-5.5633,-5.566,-5.5774,-5.5824,-5.5876,-5.5864,-5.573,-5.5725,-5.5712,-5.5673,-5.5859,-5.5859,-5.5859,-5.5859,-5.5377,-5.5378,-5.5518,-5.5607,-5.5698,-5.5736,-5.5886,-5.5947,-5.6003,-5.6036,-5.6013,-5.5965,-5.595,-5.5954,-5.5935,-5.5899,-5.6138,-5.6139,-5.6139,-5.5498,-5.5508,-5.563,-5.5685,-5.5774,-5.585,-5.5992,-5.6095,-5.6151,-5.6151,-5.6062,-5.605,-5.5972,-5.5946,-5.5938,-5.5909,-5.5843,0,0]},{"header":{"parameterUnit":"m.s-1","parameterCategory":1,"la1":30.2992,"la2":30.254,"lo1":-89.0895,"lo2":-89.0443,"dy":0.0025,"dx":0.0025,"nx":19,"ny":19,"refTime":"2026-04-02T09:00:00:Z","depth":0,"parameterNumber":3,"parameterNumberName":"V-component_of_WINDS"},"data":[0,0,0,3.9829,3.9832,3.9953,3.9954,4.0091,4.0092,0,0,0,0,0,0,0,0,0,0,0,3.9783,3.9783,3.9829,3.9832,3.9953,3.9954,4.0091,4.0092,0,0,0,0,0,0,0,0,0,0,0,3.9783,3.9783,3.9784,3.9832,3.9953,3.9954,4.0091,4.0005,0,0,0,0,0,0,0,0,0,0,3.989,3.9837,3.9783,3.9784,3.9833,3.9953,3.9954,4.0002,4.0011,4.0029,0,4.0042,0,4.007,4.01,4.0101,0,0,0,3.9839,3.983,3.9872,3.9784,3.9834,3.9953,3.9901,4.0007,4.0017,4.0041,4.0045,4.005,4.0072,4.0101,4.0102,4.0183,4.0183,0,0,3.9833,3.9799,3.9865,3.9878,3.9859,3.9897,3.9904,4.0013,4.0015,4.0045,4.0054,4.0074,4.0102,4.0103,4.0183,4.0183,0,0,0,3.9808,3.9794,3.9834,3.9872,3.9895,3.99,3.9909,4.001,4.0026,4.0055,4.0076,4.0103,4.0104,4.0183,4.0183,4.0153,0,0,0,3.9805,3.978,3.9831,3.9811,3.9893,3.9955,3.9903,4.0019,4.0032,4.0075,4.0103,4.0105,4.0183,4.0183,4.0154,4.0144,0,0,0,3.9778,3.9777,3.9791,3.9809,3.986,3.9954,3.9976,4.0022,4.0044,4.0101,4.0106,4.0183,4.0183,4.0155,4.0146,4.0157,0,0,0,3.974,3.9761,3.979,3.9821,3.9859,3.9934,3.9976,4.0033,4.0078,4.0103,4.0183,4.0183,4.0155,4.0147,4.0158,4.0161,4.0159,0,0,3.9748,3.9761,3.9782,3.9811,3.9873,3.9918,3.9976,4.0048,4.0083,4.0148,4.015,4.0154,4.0146,4.0157,4.0159,4.0157,0,0,0,3.9773,3.9787,3.9811,3.9853,3.991,3.9958,4.0026,4.0053,4.011,4.011,4.0162,4.0158,4.0166,4.0169,4.0168,4.0177,4.0183,4.0183,4.0183,3.9734,3.978,3.9818,3.9879,3.9919,3.9989,4.0026,4.0075,4.0108,4.0119,4.0139,4.0134,4.0137,4.0136,4.0145,4.0144,4.0143,4.0143,4.0143,3.975,3.9778,3.9824,3.9877,3.9925,3.997,4.0038,4.0061,4.0109,4.0123,4.0132,4.0144,4.0133,4.0143,4.0142,4.0142,4.0142,4.0142,4.0142,3.973,3.9752,3.9786,3.9852,3.9898,3.9959,4.0004,4.0046,4.0085,4.0094,4.012,4.0121,4.0127,4.0104,4.0104,4.0104,4.0104,4.0104,4.0104,3.9697,3.9736,3.977,3.9833,3.9866,3.9915,3.9987,4.002,4.0068,4.0095,4.0096,4.0128,4.0123,4.0121,4.0104,4.0104,4.0104,4.0104,4.0104,3.9697,3.9704,3.9756,3.9789,3.9868,3.9911,3.9964,4.003,4.0063,4.0085,4.0115,4.0105,4.0121,4.0122,4.0121,4.0105,4.0105,4.0105,4.0105,3.9681,3.9694,3.9757,3.9808,3.9863,3.9916,3.9974,4.003,4.0088,4.0112,4.0121,4.0123,4.0122,4.0139,4.014,4.0139,4.0128,4.0128,4.0128,3.9684,3.9704,3.9745,3.9804,3.9869,3.9923,3.9979,4.0035,4.0103,4.013,4.0132,4.0131,4.0135,4.0133,4.0161,4.0161,4.0162,0,0]}]]